This is the latest recevied weather packets stored in our database for station/object WB3IGR. If no packets are shown the sender has not sent any weather packets the latest 1 day(s).
| Time | Temp. | Humidity | Pressure | Rain* | Wind** | Luminosity | Snow |
|---|---|---|---|---|---|---|---|
| 1778073735 | 15.56° C | 98% | 1010.2 hPa | 1.78 mm | - | 88 W/m² | - |
| 1778072826 | 15.56° C | 97% | 1010.4 hPa | 1.78 mm | - | 121 W/m² | - |
| 1778071616 | 16.11° C | 96% | 1010.7 hPa | 0 mm | - | 35 W/m² | - |
| 1778069196 | 16.67° C | 92% | 1010.4 hPa | 1.78 mm | - | 63 W/m² | - |
| 1778067986 | 16.67° C | 90% | 1010.2 hPa | 0 mm | - | 34 W/m² | - |
| 1778067684 | 17.22° C | 88% | 1010.3 hPa | 0 mm | - | 31 W/m² | - |
| 1778067382 | 17.22° C | 87% | 1010.4 hPa | 0 mm | - | 26 W/m² | - |
| 1778067079 | 17.22° C | 86% | 1010.4 hPa | 0 mm | - | 36 W/m² | - |
| 1778066775 | 17.78° C | 85% | 1010.2 hPa | 0 mm | - | 32 W/m² | - |
| 1778065868 | 17.78° C | 83% | 1010.1 hPa | 0 mm | - | 19 W/m² | - |
| 1778065263 | 17.78° C | 82% | 1009.7 hPa | 0 mm | - | 15 W/m² | - |
| 1778064959 | 17.78° C | 80% | 1009.7 hPa | 0 mm | - | 12 W/m² | - |
| 1778064656 | 17.78° C | 80% | 1009.8 hPa | 0 mm | - | 9 W/m² | - |
| 1778063445 | 18.33° C | 80% | 1009.2 hPa | 0 mm | - | 14 W/m² | - |
| 1778063144 | 17.78° C | 80% | 1009.4 hPa | 0 mm | - | 17 W/m² | - |
| 1778062537 | 17.78° C | 80% | 1009.4 hPa | 0 mm | - | 10 W/m² | - |
| 1778061025 | 17.78° C | 78% | 1009.3 hPa | 0 mm | - | 0 W/m² | - |
| 1778059816 | 18.33° C | 77% | 1009.6 hPa | 0 mm | - | 0 W/m² | - |
| 1778059514 | 18.33° C | 77% | 1009.5 hPa | 0 mm | - | 0 W/m² | - |
| 1778059210 | 18.33° C | 77% | 1009.5 hPa | 0 mm | - | 0 W/m² | - |
| 1778057999 | 18.33° C | 76% | 1009.3 hPa | 0 mm | - | 0 W/m² | - |
| 1778057392 | 18.33° C | 75% | 1009.4 hPa | 0 mm | - | 0 W/m² | - |
| 1778057089 | 18.33° C | 74% | 1009.6 hPa | 0 mm | - | 0 W/m² | - |
| 1778056483 | 18.33° C | 74% | 1009.2 hPa | 0 mm | - | 0 W/m² | - |
| 1778056180 | 18.33° C | 74% | 1009.5 hPa | 0 mm | - | 0 W/m² | - |
* Rain latest hour (hover to see other rain measurements)
** Current wind speed in m/s (hover to see current wind gust speed)